TimeMDT,TemperatureF,Dew PointF,Humidity,Sea Level PressureIn,VisibilityMPH,Wind Direction,Wind SpeedMPH,Gust SpeedMPH,PrecipitationIn,Events,Conditions,WindDirDegrees,DateUTC
12:53 AM,21.0,14.0,74,30.24,10.0,Calm,Calm,-,N/A,,Clear,0,2013-04-02 06:53:00
1:53 AM,18.0,12.9,81,30.24,10.0,Calm,Calm,-,N/A,,Clear,0,2013-04-02 07:53:00
2:53 AM,18.0,12.9,81,30.22,10.0,Calm,Calm,-,N/A,,Clear,0,2013-04-02 08:53:00
3:53 AM,17.1,12.0,81,30.22,10.0,Calm,Calm,-,N/A,,Clear,0,2013-04-02 09:53:00
4:53 AM,17.1,12.0,81,30.22,10.0,Calm,Calm,-,N/A,,Clear,0,2013-04-02 10:53:00
5:53 AM,16.0,12.0,84,30.23,10.0,Calm,Calm,-,N/A,,Clear,0,2013-04-02 11:53:00
6:53 AM,15.1,10.9,84,30.25,10.0,Calm,Calm,-,N/A,,Clear,0,2013-04-02 12:53:00
7:53 AM,23.0,19.0,85,30.26,10.0,Calm,Calm,-,N/A,,Clear,0,2013-04-02 13:53:00
8:53 AM,33.1,23.0,66,30.25,10.0,ESE,4.6,-,N/A,,Clear,110,2013-04-02 14:53:00
9:53 AM,39.0,23.0,53,30.25,10.0,East,8.1,-,N/A,,Clear,90,2013-04-02 15:53:00
10:53 AM,41.0,23.0,49,30.25,10.0,East,9.2,-,N/A,,Clear,100,2013-04-02 16:53:00
11:53 AM,45.0,23.0,42,30.24,10.0,SE,8.1,-,N/A,,Clear,130,2013-04-02 17:53:00
12:53 PM,46.9,23.0,39,30.23,10.0,ESE,9.2,16.1,N/A,,Clear,120,2013-04-02 18:53:00
1:53 PM,48.9,23.0,36,30.21,10.0,South,5.8,-,N/A,,Clear,170,2013-04-02 19:53:00
2:53 PM,52.0,23.0,32,30.19,10.0,Variable,3.5,-,N/A,,Clear,0,2013-04-02 20:53:00
3:53 PM,53.1,21.0,29,30.17,10.0,SE,5.8,-,N/A,,Clear,140,2013-04-02 21:53:00
4:53 PM,54.0,21.0,28,30.15,10.0,ESE,8.1,-,N/A,,Clear,120,2013-04-02 22:53:00
5:53 PM,54.0,21.0,28,30.14,10.0,SE,10.4,-,N/A,,Clear,140,2013-04-02 23:53:00
6:53 PM,50.0,21.0,32,30.14,10.0,SSE,9.2,-,N/A,,Clear,150,2013-04-03 00:53:00
7:53 PM,44.1,21.0,40,30.13,10.0,SE,9.2,-,N/A,,Clear,140,2013-04-03 01:53:00
8:53 PM,41.0,21.0,45,30.13,10.0,SE,11.5,-,N/A,,Clear,130,2013-04-03 02:53:00
9:53 PM,37.9,21.9,53,30.13,10.0,SE,10.4,-,N/A,,Clear,130,2013-04-03 03:53:00
10:53 PM,35.1,21.9,59,30.14,10.0,ESE,10.4,-,N/A,,Clear,120,2013-04-03 04:53:00
11:53 PM,34.0,21.9,61,30.12,10.0,SE,11.5,-,N/A,,Clear,130,2013-04-03 05:53:00